Location: Colonia Mina de C?rbuni
(46.1667°N, 22.7167°E)
Time: 23:10:51
(UTC+00:00)

A-11 Canister half - All Passes

Search period start: 16 April 2024 00:00
Search period end: 26 April 2024 00:00
Orbit: 1526 x 1682 km, 47.3° (Epoch: 16 April)

Date Brightness Start Highest point End Pass type
(mag) Time Alt. Az. Time Alt. Az. Time Alt. Az.
16 Apr - 04:01:21 10° S 04:09:43 32° SE 04:18:12 10° ENE daylight
16 Apr - 06:03:43 10° SW 06:13:46 72° SSE 06:23:53 10° ENE daylight
16 Apr - 08:08:49 10° W 08:19:04 84° N 08:29:13 10° E daylight
16 Apr - 10:14:17 10° WNW 10:24:28 78° SSW 10:34:24 10° ESE daylight
16 Apr - 12:19:50 10° WNW 12:28:41 36° SW 12:37:19 10° SSE daylight
17 Apr - 03:39:50 10° S 03:48:02 30° SE 03:56:20 10° ENE daylight
17 Apr - 05:42:00 10° SW 05:52:00 71° SSE 06:02:06 10° ENE daylight
17 Apr - 07:47:01 10° W 07:57:15 84° N 08:07:26 10° E daylight
17 Apr - 09:52:29 10° WNW 10:02:41 80° SSW 10:12:40 10° ESE daylight
17 Apr - 11:57:59 10° WNW 12:06:58 38° SW 12:15:45 10° SSE daylight
18 Apr - 03:18:19 10° S 03:26:20 28° SE 03:34:28 10° ENE daylight
18 Apr - 05:20:16 10° SW 05:30:14 69° SSE 05:40:18 10° ENE daylight
18 Apr - 07:25:14 10° W 07:35:27 85° N 07:45:39 10° E daylight
18 Apr - 09:30:41 10° WNW 09:40:54 81° SSW 09:50:55 10° ESE daylight
18 Apr - 11:36:09 10° WNW 11:45:16 40° SW 11:54:11 10° SSE daylight
19 Apr - 02:56:51 10° S 03:04:39 27° SE 03:12:33 10° ENE visible
19 Apr - 04:58:34 10° SW 05:08:28 67° SSE 05:18:30 10° ENE daylight
19 Apr - 07:03:26 10° W 07:13:38 85° N 07:23:51 10° E daylight
19 Apr - 09:08:53 10° WNW 09:19:06 83° SSW 09:29:10 10° ESE daylight
19 Apr - 11:14:19 10° WNW 11:23:33 42° SW 11:32:35 10° SSE daylight
19 Apr - 13:24:14 10° WSW 13:26:25 11° WSW 13:28:35 10° SW daylight
20 Apr - 02:35:23 10° S 02:42:58 25° SE 02:50:39 10° E visible
20 Apr - 04:36:50 10° SW 04:46:42 65° SSE 04:56:43 10° ENE daylight
20 Apr - 06:41:37 10° W 06:51:50 85° N 07:02:03 10° E daylight
20 Apr - 08:47:05 10° WNW 08:57:19 84° SSW 09:07:24 10° ESE daylight
20 Apr - 10:52:29 10° WNW 11:01:50 44° SW 11:10:59 10° SSE daylight
20 Apr - 13:01:30 10° W 13:04:46 12° WSW 13:08:02 10° SW daylight
21 Apr - 02:13:57 10° S 02:21:17 24° SE 02:28:44 10° E visible
21 Apr - 04:15:09 10° SW 04:24:57 63° SSE 04:34:55 10° ENE daylight
21 Apr - 06:19:50 10° W 06:30:01 86° N 06:40:15 10° E daylight
21 Apr - 08:25:18 10° WNW 08:35:32 86° SSW 08:45:38 10° ESE daylight
21 Apr - 10:30:40 10° WNW 10:40:07 46° SW 10:49:22 10° SSE daylight
21 Apr - 12:39:05 10° W 12:43:07 13° WSW 12:47:09 10° SW daylight
22 Apr - 01:52:32 10° S 01:59:36 23° SE 02:06:47 10° E visible
22 Apr - 03:53:27 10° SW 04:03:11 61° SSE 04:13:08 10° ENE daylight
22 Apr - 05:58:03 10° W 06:08:13 87° N 06:18:27 10° E daylight
22 Apr - 08:03:30 10° WNW 08:13:44 87° SSW 08:23:52 10° ESE daylight
22 Apr - 10:08:51 10° WNW 10:18:23 48° SW 10:27:44 10° SSE daylight
22 Apr - 12:16:48 10° W 12:21:29 14° WSW 12:26:07 10° SSW daylight
23 Apr - 01:31:09 10° S 01:37:56 21° SE 01:44:49 10° E visible
23 Apr - 03:31:45 10° SW 03:41:26 59° SSE 03:51:19 10° ENE daylight
23 Apr - 05:36:16 10° W 05:46:25 87° N 05:56:39 10° E daylight
23 Apr - 07:41:42 10° WNW 07:51:56 88° SSW 08:02:05 10° ESE daylight
23 Apr - 09:47:02 10° WNW 09:56:38 49° SW 10:06:06 10° SSE daylight
23 Apr - 11:54:37 10° W 11:59:49 15° WSW 12:04:59 10° SSW daylight
24 Apr - 01:09:47 10° SSE 01:16:16 20° SE 01:22:50 10° E visible
24 Apr - 03:10:05 10° SW 03:19:42 57° SE 03:29:31 10° ENE daylight
24 Apr - 05:14:29 10° WSW 05:24:36 88° N 05:34:51 10° E daylight
24 Apr - 07:19:55 10° WNW 07:30:08 89° SSW 07:40:19 10° ESE daylight
24 Apr - 09:25:14 10° WNW 09:34:54 51° SW 09:44:26 10° SE daylight
24 Apr - 11:32:30 10° W 11:38:10 17° SW 11:43:47 10° SSW daylight
25 Apr - 00:48:28 10° SSE 00:54:36 19° SE 01:00:49 10° E visible
25 Apr - 02:48:25 10° SW 02:57:57 55° SE 03:07:43 10° ENE visible
25 Apr - 04:52:41 10° WSW 05:02:48 89° N 05:13:03 10° E daylight
25 Apr - 06:58:07 10° W 07:08:20 90° NNE 07:18:31 10° ESE daylight
25 Apr - 09:03:26 10° WNW 09:13:10 53° SW 09:22:47 10° SE daylight
25 Apr - 11:10:26 10° W 11:16:30 18° SW 11:22:31 10° SSW daylight
